Date String (YYYY-MM-DD hh:mm:ss) UTC,Instrument flags,Ambient pressure (hPa),Sample flow (lpm),Bypass flow (lpm),Sample temperature (°C),Ambient temperature (°C),ASC tube jacket temperature (°C),LED temperature (°C),Box temperature (°C),Sample RH (%),Span deviation,Mass concentration (μg/m³),Mass concentration (μg/m³),Mass concentration (μg/m³)
DateTimeUTC,F1_M11,P_M11,Q1_M11,Q2_M11,T1_M11,T2_M11,T3_M11,T4_M11,T5_M11,U1_M11,ZSPAN_M11,X0_M11,X2_M11,X1_M11
2023-02-14 00:00:00,,0810.2,5.00,0.00,26.1,24.3,00.0,35.0,27.9,08.6,0000.0,0015.65,0007.37,0006.22
2023-02-14 00:01:00,,0810.1,5.00,0.00,26.1,24.3,00.0,35.0,27.9,08.5,0000.0,0016.25,0007.46,0006.25
2023-02-14 00:02:00,,0810.0,5.01,0.00,26.1,24.4,00.0,35.0,27.9,08.7,0000.0,0017.10,0007.58,0006.30
2023-02-14 00:03:00,,0810.1,5.00,0.00,26.1,24.5,00.0,35.0,27.9,08.6,0000.0,0018.09,0007.73,0006.33
2023-02-14 00:04:00,,0810.1,5.00,0.00,26.1,24.5,00.0,35.0,27.9,08.7,0000.0,0018.63,0007.87,0006.37
2023-02-14 00:05:00,,0810.1,4.98,0.00,26.1,24.6,00.0,35.0,27.9,09.0,0000.0,0019.79,0008.02,0006.40
2023-02-14 00:06:00,,0810.1,4.99,0.00,26.1,24.6,00.0,35.0,28.0,09.2,0000.0,0020.60,0008.11,0006.42
2023-02-14 00:07:00,,0810.2,4.99,0.00,26.1,24.6,00.0,35.0,28.0,09.0,0000.0,0021.30,0008.23,0006.47
2023-02-14 00:08:00,,0810.2,5.01,0.00,26.1,24.5,00.0,35.0,27.9,09.0,0000.0,0021.49,0008.37,0006.52
2023-02-14 00:09:00,,0810.2,4.99,0.00,26.1,24.5,00.0,35.0,27.9,08.8,0000.0,0021.70,0008.36,0006.54
2023-02-14 00:10:00,,0810.2,4.99,0.00,26.1,24.5,00.0,35.0,27.9,08.8,0000.0,0021.83,0008.26,0006.54
2023-02-14 00:11:00,,0810.2,5.00,0.00,26.1,24.5,00.0,34.9,27.9,08.7,0000.0,0022.15,0008.28,0006.57
2023-02-14 00:12:00,,0810.2,5.00,0.00,26.1,24.4,00.0,34.9,27.9,09.2,0000.0,0022.34,0008.25,0006.60
2023-02-14 00:13:00,,0810.2,4.98,0.00,26.1,24.3,00.0,34.9,27.9,09.6,0000.0,0021.87,0008.25,0006.62
2023-02-14 00:14:00,,0810.2,4.99,0.00,26.0,24.2,00.0,34.9,27.8,09.6,0000.0,0021.15,0008.20,0006.64
2023-02-14 00:15:00,,0810.2,5.01,0.00,26.0,24.0,00.0,34.9,27.7,09.8,0000.0,0020.62,0008.15,0006.67
2023-02-14 00:16:00,,0810.2,5.00,0.00,26.0,24.0,00.0,34.9,27.7,10.0,0000.0,0020.00,0008.15,0006.73
2023-02-14 00:17:00,,0810.1,5.01,0.00,25.9,23.9,00.0,34.9,27.7,10.1,0000.0,0019.85,0008.21,0006.82
2023-02-14 00:18:00,,0810.1,5.00,0.00,25.9,23.9,00.0,34.9,27.7,09.9,0000.0,0019.46,0008.30,0006.92
2023-02-14 00:19:00,,0810.1,5.00,0.00,25.9,23.9,00.0,34.8,27.7,09.6,0000.0,0018.63,0008.28,0007.02
2023-02-14 00:20:00,,0810.1,5.00,0.00,25.9,23.9,00.0,34.8,27.7,09.6,0000.0,0018.18,0008.35,0007.10
2023-02-14 00:21:00,,0810.0,5.00,0.00,25.9,23.9,00.0,34.8,27.7,09.6,0000.0,0017.75,0008.39,0007.17
2023-02-14 00:22:00,,0810.1,5.00,0.00,25.8,23.9,00.0,34.8,27.6,09.8,0000.0,0018.22,0008.41,0007.24
2023-02-14 00:23:00,,0810.1,5.00,0.00,25.8,23.8,00.0,34.8,27.6,10.0,0000.0,0017.91,0008.47,0007.32
2023-02-14 00:24:00,,0810.1,5.00,0.00,25.8,23.7,00.0,34.8,27.5,10.1,0000.0,0017.96,0008.51,0007.40
2023-02-14 00:25:00,,0810.1,4.99,0.00,25.7,23.6,00.0,34.7,27.4,10.2,0000.0,0018.54,0008.59,0007.47
2023-02-14 00:26:00,,0810.0,5.00,0.00,25.7,23.5,00.0,34.7,27.4,10.4,0000.0,0018.75,0008.64,0007.54
2023-02-14 00:27:00,,0809.9,5.01,0.00,25.7,23.5,00.0,34.7,27.4,10.5,0000.0,0017.93,0008.66,0007.58
2023-02-14 00:28:00,,0809.9,5.01,0.00,25.6,23.5,00.0,34.7,27.3,10.8,0000.0,0017.97,0008.68,0007.58
2023-02-14 00:29:00,,0809.9,5.00,0.00,25.6,23.4,00.0,34.7,27.3,11.0,0000.0,0018.51,0008.67,0007.58
2023-02-14 00:30:00,,0809.9,5.01,0.00,25.6,23.4,00.0,34.6,27.3,11.0,0000.0,0019.55,0008.73,0007.62
2023-02-14 00:31:00,,0809.9,5.00,0.00,25.6,23.4,00.0,34.6,27.2,10.9,0000.0,0020.57,0008.79,0007.65
2023-02-14 00:32:00,,0809.9,4.99,0.00,25.5,23.3,00.0,34.6,27.2,10.9,0000.0,0020.91,0008.91,0007.69
2023-02-14 00:33:00,,0809.7,5.01,0.00,25.5,23.2,00.0,34.6,27.2,10.9,0000.0,0020.33,0009.10,0007.74
2023-02-14 00:34:00,,0809.7,5.00,0.00,25.5,23.2,00.0,34.5,27.1,10.8,0000.0,0020.42,0009.20,0007.75
2023-02-14 00:35:00,,0809.7,5.00,0.00,25.4,23.2,00.0,34.5,27.1,11.0,0000.0,0020.72,0009.26,0007.78
2023-02-14 00:36:00,,0809.7,5.00,0.00,25.4,23.1,00.0,34.5,27.1,11.2,0000.0,0020.90,0009.34,0007.82
2023-02-14 00:37:00,,0809.7,4.99,0.00,25.4,23.1,00.0,34.4,27.1,11.3,0000.0,0020.50,0009.39,0007.86
2023-02-14 00:38:00,,0809.7,5.00,0.00,25.3,23.1,00.0,34.4,27.0,11.4,0000.0,0021.45,0009.43,0007.89
2023-02-14 00:39:00,,0809.7,5.01,0.00,25.3,23.1,00.0,34.4,27.0,11.5,0000.0,0021.40,0009.50,0007.97
2023-02-14 00:40:00,,0809.7,5.00,0.00,25.3,23.1,00.0,34.4,27.0,11.7,0000.0,0021.81,0009.60,0008.04
2023-02-14 00:41:00,,0809.7,4.99,0.00,25.3,23.1,00.0,34.3,27.0,11.8,0000.0,0021.73,0009.72,0008.12
2023-02-14 00:42:00,,0809.7,5.02,0.00,25.2,23.1,00.0,34.3,26.9,11.8,0000.0,0021.40,0009.81,0008.21
2023-02-14 00:43:00,,0809.7,4.99,0.00,25.2,23.0,00.0,34.3,26.9,11.9,0000.0,0021.12,0009.83,0008.27
2023-02-14 00:44:00,,0809.7,5.01,0.00,25.2,23.0,00.0,34.3,26.9,12.0,0000.0,0021.06,0009.81,0008.34
2023-02-14 00:45:00,,0809.7,5.01,0.00,25.2,23.0,00.0,34.2,26.9,12.0,0000.0,0021.09,0009.84,0008.42
2023-02-14 00:46:00,,0809.8,4.99,0.00,25.1,23.0,00.0,34.2,26.9,12.0,0000.0,0022.39,0010.04,0008.52
2023-02-14 00:47:00,,0809.7,5.00,0.00,25.1,23.0,00.0,34.2,26.8,12.1,0000.0,0024.79,0010.17,0008.62
2023-02-14 00:48:00,,0809.7,5.00,0.00,25.1,23.0,00.0,34.2,26.8,12.1,0000.0,0025.45,0010.31,0008.71
2023-02-14 00:49:00,,0809.7,4.99,0.00,25.1,23.0,00.0,34.1,26.8,12.1,0000.0,0025.67,0010.48,0008.82
2023-02-14 00:50:00,,0809.7,4.99,0.00,25.0,22.9,00.0,34.1,26.8,12.1,0000.0,0025.43,0010.57,0008.91
2023-02-14 00:51:00,,0809.7,5.01,0.00,25.0,22.9,00.0,34.1,26.8,12.1,0000.1,0025.43,0010.63,0008.96
2023-02-14 00:52:00,,0809.7,4.99,0.00,25.0,22.9,00.0,34.1,26.7,12.1,0004.2,0025.40,0010.75,0009.03
2023-02-14 00:53:00,,0809.7,5.01,0.00,25.0,22.9,00.0,34.1,26.7,12.2,0005.1,0026.10,0010.89,0009.14
2023-02-14 00:54:00,,0809.8,5.00,0.00,25.0,22.8,00.0,34.0,26.7,12.3,0004.8,0027.52,0011.01,0009.26
2023-02-14 00:55:00,,0809.7,5.00,0.00,24.9,22.8,00.0,34.0,26.7,12.5,0004.8,0028.44,0011.13,0009.38
2023-02-14 00:56:00,,0809.6,5.01,0.00,24.9,22.8,00.0,34.0,26.7,12.5,0005.1,0029.27,0011.32,0009.52
2023-02-14 00:57:00,,0809.5,4.99,0.00,24.9,22.8,00.0,34.0,26.7,12.5,0005.5,0029.52,0011.40,0009.66
2023-02-14 00:58:00,,0809.5,4.99,0.00,24.9,22.8,00.0,34.0,26.7,12.1,0005.9,0027.34,0011.38,0009.74
2023-02-14 00:59:00,,0809.5,4.99,0.00,24.9,22.9,00.0,33.9,26.7,12.1,0005.8,0027.02,0011.42,0009.79
